Regional Weather Roundup
Issued by NWS

Home | Current Version | Previous Version | Text Only | Print | Product List | Glossary Off
Versions: 1 2 3 4 5 6 7 8 9 10 11 12 13 14 15 16 17 18 19 20 21 22 23 24 25 26 27 28 29 30 31 32 33 34 35 36 37 38 39 40 41 42 43 44 45 46 47 48 49 50

000
ASUS46 KLOX 152112
RWRCA

SOUTHERN CALIFORNIA WEATHER ROUNDUP
NATIONAL WEATHER SERVICE OXNARD CALIFORNIA
200 PM PDT MON SEP 15 2014

NOTE: "FAIR" INDICATES FEW OR NO CLOUDS BELOW 12,000 FEET WITH NO
SIGNIFICANT WEATHER AND/OR OBSTRUCTIONS TO VISIBILITY.

  -  STATIONS PRECEEDED BY AN ASTERISK (*) ARE NOT NWS OR FAA
     STATIONS AND ARE NOT SUBJECT TO NWS AND FAA QUALITY CONTROL.

CAZ041-042-087-152200-
LA AND ORANGE COUNTY COASTAL AREAS


CITY           SKY/WX    TMP DP  RH WIND       PRES   REMARKS
L.A. DOWNTOWN  SUNNY     92  58  31 VRB3      29.77F HX  91
L.A. AIRPORT   MOSUNNY   82  61  48 W18       29.79F
LONG BEACH     SUNNY     93  59  31 W14       29.76F HX  92

CITY           SKY/WX    TMP DP  RH WIND       PRES   REMARKS
AVALON           N/A     81 N/A N/A N5          N/A
FULLERTON      SUNNY    102  63  27 VRB6      29.74F HX 104
*GETTY CENTER    N/A     97  55  24 SW9         N/A  HX  95
HAWTHORNE      SUNNY     87  60  40 W17       29.78F
*LEO CARRILLO    N/A     85  61  44 W14         N/A
*LOS ALAMITOS  SUNNY     96  67  39 W8        29.76F HX 100
*REDONDO BEACH   N/A     78  66  66 W6        29.78F
SANTA ANA      MOSUNNY   93  65  39 W7        29.76F HX  95
STA MONICA APT SUNNY     87  61  41 S10       29.78F
*STA MON PIER    N/A     73  68  83 S5        29.77F
TORRANCE       SUNNY     86  64  48 NW20      29.79F
*UCLA            N/A     91  55  29 SW8       29.75F

$$

CAZ547-548-048-152200-
LA COUNTY VALLEYS AND INLAND EMPIRE


CITY           SKY/WX    TMP DP  RH WIND       PRES   REMARKS
BURBANK        SUNNY    102  53  19 S8        29.78F HX 100
VAN NUYS       MOSUNNY  106  48  14 S10       29.78F HX 102

CITY           SKY/WX    TMP DP  RH WIND       PRES   REMARKS
CORONA AIRPORT CLEAR    104  58  21 W15G22    29.76F HX 104
*CHATSWORTH      N/A    104  61  24 W8        29.71F HX 105
CHINO          MOSUNNY  107  54  17 VRB7      29.77F HX 105
MARCH AFB      MOSUNNY  106  50  15 VRB7      29.81F HX 102
*NORTHRIDGE      N/A    106  45  12 SW3G9       N/A  HX 101
ONTARIO        MOSUNNY  106  50  15 SW9G20    29.78F HX 103
*PASADENA        N/A    104  64  27 E2          N/A  HX 107
RIVERSIDE      SUNNY    107  47  13 VRB7      29.76F HX 103
SAN BERNARDINO MOSUNNY  106  45  12 S12       29.78F HX 101
*SAN GABRIEL     N/A     99  56  23 CALM      29.71S HX  97
*SAN RAFAEL HI   N/A    107  63  23 E7          N/A  HX 110
*WHITEMAN AP   NOT AVBL
*WHITTIER HILL   N/A    101  68  34 SW9G21      N/A  HX 107
*WOODLAND HILL   N/A    108  48  13 S6          N/A  HX 104

$$

CAZ054-055-152200-
LA AND SAN BERNARDINO COUNTY MOUNTAINS


CITY           SKY/WX    TMP DP  RH WIND       PRES   REMARKS
*BIG BEAR AIRP MOCLDY    75  39  27 NE6       30.26F
*CHILAO          N/A     86  45  23 N2G14       N/A
MT WILSON NWS    N/A     91  48  22 SW9         N/A
SANDBERG       SUNNY     92  42  17 SE13G20   30.09F
*WARM SPRINGS    N/A     97  45  16 S5          N/A  HX  93

$$

CAZ028-029-059-060-099-152200-
ANTELOPE VALLEY AND SURROUNDING AREAS


CITY           SKY/WX    TMP DP  RH WIND       PRES   REMARKS
LANCASTER      SUNNY    100  46  16 CALM      29.90F HX  96
PALMDALE       SUNNY     99  45  15 MISG      29.92F HX  95

CITY           SKY/WX    TMP DP  RH WIND       PRES   REMARKS
29 PALMS       SUNNY    100  50  18 VRB3G17   29.95F HX  97
BARSTOW/DAGGET SUNNY    101  42  13 VRB3      29.88F HX  96
BISHOP         SUNNY     95  37  13 S14G22    30.00F HX  90
CHINA LAKE     MOSUNNY  103  45  14 E8        29.89F HX  99
EDWARDS AFB    MOSUNNY   99  45  15 SE7       29.90F HX  95
MOJAVE         FAIR      97  46  17 SE8       29.94F HX  93
NEEDLES        SUNNY    108  48  13 NE6       29.80F HX 104
VICTORVILLE    MOSUNNY   99  41  13 N7        29.94F HX  94

$$

CAZ039-040-152200-
VENTURA AND SANTA BARBARA COUNTY COAST


CITY           SKY/WX    TMP DP  RH WIND       PRES   REMARKS
CAMARILLO      SUNNY     87  62  43 SW8       29.80S
NWS OXNARD       N/A     82  64  54 CALM      29.79F
OXNARD AIRPORT SUNNY     79  64  60 W14       29.80F
*POINT MUGU    MOSUNNY   84  65  52 W10       29.80F
SBA APT/GOLETA SUNNY     79  64  60 SE7       29.79F
*SANTA BARBARA   N/A     90  65  43 SW2       29.87F HX  91
*VENTURA         N/A     85  64  48 SW6       29.84S

$$

CAZ044-045-152200-
VENTURA COUNTY VALLEYS


CITY           SKY/WX    TMP DP  RH WIND       PRES   REMARKS
*SIMI VALLEY     N/A     98  58  25 W10       29.72F HX  97
*OJAI            N/A    104  60  23 W3        29.71S HX 105
*FILLMORE        N/A    102  61  25 CALM      29.67F HX 103

$$

CAZ053-152200-
VENTURA COUNTY MOUNTAINS


CITY           SKY/WX    TMP DP  RH WIND       PRES   REMARKS
*LOCKWOOD VLY    N/A     86  45  23 MISG        N/A
*ROSE VALLEY     N/A     95  57  28 MISG        N/A  HX  94

$$

CAZ034-035-036-152200-
CENTRAL COAST AND SANTA YNEZ VALLEY


CITY           SKY/WX    TMP DP  RH WIND       PRES   REMARKS
SAN LUIS OBISP SUNNY     83  55  38 NW17      29.86F
SANTA MARIA    SUNNY     81  57  43 NW12      29.88F

CITY           SKY/WX    TMP DP  RH WIND       PRES   REMARKS
*CAL POLY SLO    N/A     82  59  44 NW7         N/A
*LOMPOC        SUNNY     75  57  53 W15G21    29.88F
*PISMO BEACH     N/A     67  61  81 SW3       29.88F
*SANTA YNEZ    FAIR      91  52  25 W13       29.86F

$$

CAZ037-038-051-152200-
SAN LUIS OBISPO COUNTY INTERIOR AND CUYAMA VALLEY


CITY           SKY/WX    TMP DP  RH WIND       PRES   REMARKS
*CUYAMA          N/A     95  48  19 NE8       29.75S HX  92
PASO ROBLES    SUNNY     95  45  17 CALM      29.85F HX  91

$$

CAZ032-033-061-152200-
SOUTHERN DESERTS


CITY           SKY/WX    TMP DP  RH WIND       PRES   REMARKS
BLYTHE         SUNNY    106  57  20 VRB6      29.75F HX 105
IMPERIAL       SUNNY    108  58  19 SE7       29.70F HX 108
PALM SPRINGS   SUNNY    110  51  14 SE13      29.75F HX 107
THERMAL        SUNNY    110  55  16 S7        29.68F HX 109

$$

ELSEWHERE ACROSS THE WESTERN UNITED STATES AND MEXICO


CITY           SKY/WX    TMP DP  RH WIND       PRES   REMARKS
DENVER, CO     MOSUNNY   70  49  47 SE7       30.27F
GRAND CANYON,  PTSUNNY   74  47  38 E3        30.27F
HONOLULU, HI   MOSUNNY   88  68  51 NE12G18   29.94F HX  91
KAHULUI, MAUI  MOSUNNY   84  72  65 N10       29.95F
LAKE TAHOE, CA MOSUNNY   81  38  21 S16G25    30.18F
LAS VEGAS, NV  MOSUNNY  101  44  14 VRB3      29.87F HX  97
MAMMOTH LAKES, PTSUNNY   81  32  17 SW16G24   30.25F
MEXICO CITY, M PTSUNNY   72  50  46 NE10      30.29F
PHOENIX, AZ    MOSUNNY  103  58  22 VRB5      29.80F HX 102
PORTLAND, OR   PTSUNNY   85  43  22 W8        29.78F
RENO, NV       PTSUNNY   91  42  18 S20G28    30.03F
SALT LAKE CITY MOSUNNY   87  41  19 NW10      30.08F
SAN DIEGO, CA  MOSUNNY   84  69  60 NW10      29.77F
SAN FRANCISCO, MOSUNNY   77  55  46 W18G24    29.90F
SAN JOSE, CA   MOSUNNY   76  58  53 NW9       29.89F
SEATTLE, WA    MOSUNNY   83  43  24 NW7       29.85F
TIJUANA, MEX   SUNNY     88  63  42 W10       29.79F

$$

STATION/POSITION TIME  TEMP    WIND        PRES    VSBY  WAVE
                       AIR SEA DIR/SP/G                  HT/PER
                 (UTC) (F)     (DEG/KT/KT) (MB)    (MI)  (FT/S)
POINT ARGUELLO B NOT AVBL
WEST SANTA BARBA 2100   64 67  310/ 23/ 27 1009.4F         5/ 5
POINT CONCEPTION NOT AVBL
EAST SANTA BARBA 2100   69     250/ 12     1009.2F
SANTA MONICA BAY 2100   73 75  320/  6/  8 1008.6F         3/21


USA.gov is the U.S. government's official web portal to all federal, state and local government web resources and services.